Location: Pompeys Pillar
(45.9913°N, 107.9528°W)
Time: 05:09:36
(UTC+00:00)

Tiros 1 - Pass Details

Date: 02 June 2022
Orbit: 629 x 663 km, 48.4° (Epoch: 30 June)

Event Time Altitude Azimuth Distance (km) Brightness Sun altitude
Rises 05:11:37 0° 225° (SW) 2,904 10.3 -16.7°
Reaches altitude 10° 05:14:00 10° 219° (SW) 1,999 9.4 -16.9°
Maximum altitude 05:18:20 43° 148° (SSE) 890 7.4 -17.3°
Drops below altitude 10° 05:22:42 10° 77° (ENE) 2,011 9.5 -17.6°
Sets 05:25:07 0° 71° (ENE) 2,924 10.5 -17.8°
